Tracking 30746 objects as of 20-Jun-2025
HD Live streaming from Space Station
objects crossing your sky now

SL-8 DEB

Track SL-8 DEB now!
10-day predictions


NORAD ID: 20435
Int'l Code: 1990-004D
Perigee: 681.3 km
Apogee: 700.3 km
Inclination: 74.0 °
Period: 98.4 minutes
Semi major axis: 7061 km
RCS: 0.0066 m2 (small)
Launch date: January 18, 1990
Source: Commonwealth of Independent States (former USSR) (CIS)
Launch site: PLESETSK MISSILE AND SPACE COMPLEX (PKMTR)

Note: This is SATELLITE DEBRIS
Your satellite tracking list
Your tracking list is empty




NASA's NSSDC Master Catalog

Two Line Element Set (TLE):
1 20435U 90004D   25170.59459287  .00001689  00000-0  33530-3 0  9992
2 20435  74.0249 284.9129 0013438  13.6418 356.8801 14.62950120869698
Source of the keplerian elements: AFSPC